When you browse on this site, cookies collect data to enhance your experience and personalize the content and advertising you see.
Visit our Privacy Policy to learn more. By continuing to use the site, you agree to this use of cookies and data.
EN

Hourly Weather Slovyansk

Today, 12 July, Sunday

Time Temperature Precipitation Wind Pressure Humidity
00:00 +20°C° 0 mm 3 mps 756 mmHg 69%
01:00 +19°C° 0 mm 3 mps 756 mmHg 71%
02:00 +18°C° 0 mm 2 mps 756 mmHg 74%
03:00 +18°C° 0 mm 2 mps 756 mmHg 76%
04:00 +18°C° 0 mm 2 mps 755 mmHg 77%
05:00 +18°C° 0 mm 2 mps 755 mmHg 78%
06:00 +18°C° 0 mm 2 mps 755 mmHg 79%
07:00 +20°C° 0 mm 3 mps 755 mmHg 72%
08:00 +22°C° 0 mm 3 mps 755 mmHg 66%
09:00 +26°C° 0 mm 4 mps 754 mmHg 59%
10:00 +27°C° 0 mm 4 mps 754 mmHg 57%
11:00 +29°C° 0 mm 4 mps 754 mmHg 54%
12:00 +32°C° 0 mm 4 mps 753 mmHg 51%
13:00 +32°C° 0 mm 4 mps 753 mmHg 52%
14:00 +31°C° 0 mm 3 mps 753 mmHg 52%
15:00 +33°C° 0 mm 3 mps 752 mmHg 53%
16:00 +31°C° 0.4 mm 3 mps 752 mmHg 55%
17:00 +30°C° 0.4 mm 3 mps 751 mmHg 58%
18:00 +30°C° 0.4 mm 3 mps 751 mmHg 60%
19:00 +28°C° 1.7 mm 3 mps 751 mmHg 67%
20:00 +26°C° 1.7 mm 3 mps 751 mmHg 75%
21:00 +24°C° 1.7 mm 3 mps 751 mmHg 82%
22:00 +22°C° 1.9 mm 3 mps 750 mmHg 83%
23:00 +22°C° 1.9 mm 3 mps 750 mmHg 84%

Tomorrow, 13 July, Monday

Time Temperature Precipitation Wind Pressure Humidity
00:00 +22°C° 1.9 mm 3 mps 750 mmHg 85%
01:00 +21°C° 0 mm 2 mps 750 mmHg 88%
02:00 +21°C° 0 mm 2 mps 749 mmHg 90%
03:00 +20°C° 0 mm 2 mps 749 mmHg 93%
04:00 +20°C° 0 mm 2 mps 749 mmHg 92%
05:00 +20°C° 0 mm 2 mps 749 mmHg 91%
06:00 +20°C° 0 mm 3 mps 748 mmHg 90%
07:00 +23°C° 0 mm 2 mps 748 mmHg 82%
08:00 +24°C° 0 mm 2 mps 748 mmHg 75%
09:00 +26°C° 0 mm 2 mps 748 mmHg 68%
10:00 +27°C° 0 mm 2 mps 748 mmHg 63%
11:00 +29°C° 0 mm 2 mps 748 mmHg 58%
12:00 +30°C° 0 mm 1 mps 747 mmHg 53%
13:00 +31°C° 0 mm 2 mps 747 mmHg 51%
14:00 +31°C° 0 mm 2 mps 747 mmHg 49%
15:00 +32°C° 0 mm 2 mps 747 mmHg 47%
16:00 +31°C° 0.4 mm 2 mps 746 mmHg 52%
17:00 +30°C° 0.4 mm 2 mps 746 mmHg 57%
18:00 +29°C° 0.4 mm 3 mps 745 mmHg 62%
19:00 +26°C° 4.8 mm 3 mps 746 mmHg 72%
20:00 +24°C° 4.8 mm 3 mps 746 mmHg 81%
21:00 +20°C° 4.8 mm 3 mps 746 mmHg 90%
22:00 +20°C° 0.3 mm 2 mps 746 mmHg 90%
23:00 +20°C° 0.3 mm 2 mps 746 mmHg 90%

Day after tomorrow, 14 July, Tuesday

Time Temperature Precipitation Wind Pressure Humidity
00:00 +21°C° 0.3 mm 1 mps 746 mmHg 89%
01:00 +21°C° 0 mm 1 mps 746 mmHg 91%
02:00 +21°C° 0 mm 1 mps 746 mmHg 93%
03:00 +20°C° 0 mm 1 mps 746 mmHg 94%
04:00 +20°C° 0 mm 1 mps 746 mmHg 93%
05:00 +21°C° 0 mm 1 mps 746 mmHg 92%
06:00 +19°C° 0 mm 0 mps 746 mmHg 91%
07:00 +22°C° 0 mm 1 mps 746 mmHg 87%
08:00 +23°C° 0 mm 1 mps 746 mmHg 83%
09:00 +24°C° 0 mm 2 mps 746 mmHg 78%
10:00 +24°C° 0.7 mm 3 mps 746 mmHg 77%
11:00 +25°C° 0.7 mm 3 mps 746 mmHg 76%
12:00 +25°C° 0.7 mm 4 mps 746 mmHg 75%
13:00 +25°C° 0.6 mm 5 mps 746 mmHg 74%
14:00 +24°C° 0.6 mm 6 mps 746 mmHg 74%
15:00 +24°C° 0.6 mm 7 mps 746 mmHg 74%
16:00 +23°C° 0 mm 7 mps 746 mmHg 73%
17:00 +23°C° 0 mm 6 mps 746 mmHg 73%
18:00 +22°C° 0 mm 6 mps 746 mmHg 73%
19:00 +21°C° 0 mm 6 mps 746 mmHg 77%
20:00 +19°C° 0 mm 5 mps 747 mmHg 81%
21:00 +18°C° 0 mm 4 mps 747 mmHg 85%
22:00 +17°C° 0 mm 4 mps 747 mmHg 87%
23:00 +17°C° 0 mm 4 mps 747 mmHg 88%

15 July, Wednesday

Time Temperature Precipitation Wind Pressure Humidity
00:00 +15°C° 0 mm 4 mps 747 mmHg 89%
01:00 +15°C° 0.1 mm 4 mps 747 mmHg 90%
02:00 +15°C° 0.1 mm 4 mps 747 mmHg 90%
03:00 +17°C° 0.1 mm 4 mps 747 mmHg 91%
04:00 +17°C° 0.2 mm 4 mps 747 mmHg 91%
05:00 +16°C° 0.2 mm 5 mps 748 mmHg 91%
06:00 +16°C° 0.2 mm 5 mps 748 mmHg 90%
07:00 +17°C° 0.1 mm 5 mps 748 mmHg 89%
08:00 +17°C° 0.1 mm 5 mps 749 mmHg 88%
09:00 +17°C° 0.1 mm 6 mps 749 mmHg 86%
10:00 +17°C° 0.1 mm 6 mps 750 mmHg 84%
11:00 +17°C° 0.1 mm 6 mps 750 mmHg 83%
12:00 +17°C° 0.1 mm 7 mps 750 mmHg 81%
13:00 +20°C° 0.1 mm 7 mps 751 mmHg 73%
14:00 +22°C° 0.1 mm 7 mps 751 mmHg 65%
15:00 +24°C° 0.1 mm 7 mps 752 mmHg 57%
16:00 +24°C° 0.1 mm 6 mps 752 mmHg 56%
17:00 +24°C° 0.1 mm 6 mps 752 mmHg 56%
18:00 +23°C° 0.1 mm 5 mps 752 mmHg 55%
19:00 +22°C° 0 mm 4 mps 752 mmHg 62%
20:00 +20°C° 0 mm 3 mps 753 mmHg 68%
21:00 +18°C° 0 mm 3 mps 753 mmHg 74%
22:00 +18°C° 0 mm 3 mps 753 mmHg 77%
23:00 +17°C° 0 mm 3 mps 753 mmHg 80%

16 July, Thursday

Time Temperature Precipitation Wind Pressure Humidity
00:00 +16°C° 0 mm 3 mps 753 mmHg 82%
01:00 +16°C° 0 mm 2 mps 753 mmHg 84%
02:00 +15°C° 0 mm 2 mps 753 mmHg 85%
03:00 +15°C° 0 mm 2 mps 753 mmHg 86%
04:00 +15°C° 0 mm 2 mps 753 mmHg 86%
05:00 +15°C° 0 mm 2 mps 753 mmHg 86%
06:00 +15°C° 0 mm 2 mps 753 mmHg 86%
07:00 +17°C° 0 mm 2 mps 753 mmHg 77%
08:00 +19°C° 0 mm 3 mps 753 mmHg 69%
09:00 +21°C° 0 mm 3 mps 753 mmHg 60%
10:00 +22°C° 0 mm 3 mps 753 mmHg 56%
11:00 +24°C° 0 mm 3 mps 753 mmHg 51%
12:00 +25°C° 0 mm 4 mps 753 mmHg 47%
13:00 +25°C° 0 mm 4 mps 753 mmHg 45%
14:00 +26°C° 0 mm 4 mps 753 mmHg 44%
15:00 +27°C° 0 mm 4 mps 753 mmHg 42%
16:00 +26°C° 0 mm 4 mps 752 mmHg 45%
17:00 +26°C° 0 mm 3 mps 752 mmHg 47%
18:00 +25°C° 0 mm 3 mps 752 mmHg 50%
19:00 +24°C° 0 mm 2 mps 752 mmHg 54%
20:00 +21°C° 0 mm 2 mps 752 mmHg 58%
21:00 +20°C° 0 mm 1 mps 753 mmHg 62%
22:00 +19°C° 0 mm 1 mps 752 mmHg 63%
23:00 +19°C° 0 mm 1 mps 752 mmHg 65%

17 July, Friday

Time Temperature Precipitation Wind Pressure Humidity
00:00 +16°C° 0 mm 0 mps 752 mmHg 66%
01:00 +16°C° 0 mm 0 mps 752 mmHg 67%
02:00 +16°C° 0 mm 0 mps 752 mmHg 67%
03:00 +15°C° 0 mm 0 mps 752 mmHg 68%
04:00 +16°C° 0 mm 0 mps 752 mmHg 68%
05:00 +16°C° 0 mm 0 mps 753 mmHg 69%
06:00 +17°C° 0 mm 0 mps 753 mmHg 70%
07:00 +20°C° 0 mm 1 mps 753 mmHg 65%
08:00 +22°C° 0 mm 1 mps 753 mmHg 59%
09:00 +24°C° 0 mm 2 mps 753 mmHg 54%
10:00 +25°C° 0 mm 2 mps 753 mmHg 50%
11:00 +27°C° 0 mm 2 mps 753 mmHg 47%
12:00 +28°C° 0 mm 2 mps 753 mmHg 43%
13:00 +28°C° 0 mm 1 mps 753 mmHg 41%
14:00 +29°C° 0 mm 1 mps 752 mmHg 40%
15:00 +29°C° 0 mm 1 mps 752 mmHg 38%
16:00 +29°C° 0 mm 1 mps 752 mmHg 40%
17:00 +29°C° 0 mm 1 mps 752 mmHg 41%
18:00 +29°C° 0 mm 1 mps 752 mmHg 43%
19:00 +27°C° 0 mm 1 mps 752 mmHg 48%
20:00 +25°C° 0 mm 1 mps 752 mmHg 53%
21:00 +23°C° 0 mm 1 mps 752 mmHg 57%
22:00 +21°C° 0 mm 2 mps 752 mmHg 58%
23:00 +21°C° 0 mm 2 mps 752 mmHg 59%
Show more